Regional Weather Roundup
Issued by NWS Goodland, KS

Home | Current Version | Previous Version | Graphics & Text | Print | Product List | Glossary On
Versions: 1 2 3 4 5 6 7 8 9 10 11 12 13 14 15 16 17 18 19 20 21 22 23 24 25 26 27 28 29 30 31 32 33 34 35 36 37 38 39 40 41 42 43 44 45 46 47 48 49 50
000
ASUS43 KGLD 301308
RWRGLD

GOODLAND FORECAST AREA HOURLY WEATHER ROUNDUP
NATIONAL WEATHER SERVICE GOODLAND KS
700 AM MDT MON MAY 30 2016

...OFFICIAL OBSERVATIONS...

CITY           SKY/WX    TMP DP  RH WIND       PRES   REMARKS
GOODLAND KS    SUNNY     56  50  80 S9        30.00S
HILL CITY KS   CLOUDY    57  53  86 CALM      30.02R
IMPERIAL NEB   SUNNY     59  51  75 W12       29.99R
MCCOOK NEB     SUNNY     60  53  77 SE3       30.00S
AKRON CO       SUNNY     52  46  80 S9        30.04S
BURLINGTON CO  SUNNY     57  49  74 SW13      30.03S
LIMON CO       SUNNY     46  45  96 S5        30.10R
$$

...UNOFFICIAL OBSERVATIONS...

CITY           SKY/WX    TMP DP  RH WIND       PRES   REMARKS
GOVE KS          N/A     70  32  24 MISG        N/A
LENORA KS        N/A     60  32  34 MISG        N/A
SHARON SPRINGS   N/A     57  53  87 S6          N/A
TRIBUNE KS     SUNNY     55  52  88 S9        30.06R
KIT CARSON CO    N/A     53  49  87 CALM        N/A
YUMA CO          N/A     54  50  87 CALM        N/A
$$




USA.gov is the U.S. government's official web portal to all federal, state and local government web resources and services.